Milwaukee, WI

1:59 PM CST on November 13, 2019 (GMT -0600)
Gen Mitchell International

Weather History for KMKE - September, 2019

Change the Weather History Date:

Friday, September 27, 2019

  Actual Average Record
Temperature  
Mean Temperature 64 °F 58 °F  
Max Temperature 66 °F 67 °F 88 °F (1891)
Min Temperature 60 °F 50 °F 31 °F (1942)
Degree Days  
Heating Degree Days 2 8  
Month to date heating degree days 10 101  
Since 1 July heating degree days 12 127  
Cooling Degree Days 0 1  
Month to date cooling degree days 109 67  
Year to date cooling degree days 715 632  
Growing Degree Days 14 (Base 50)    
Moisture  
Dew Point 56 °F    
Average Humidity 75    
Maximum Humidity 93    
Minimum Humidity 52    
Precipitation  
Precipitation 0.30 in 0.10 in 2.24 in (1999)
Month to date precipitation 5.90 2.88  
Year to date precipitation 34.31 27.06  
Snow  
Snow 0.00 in 0.00 in T in (1942)
Month to date snowfall 0.0 0.0  
Since 1 July snowfall 0.0 0.0  
Since 1 September snowfall 0.0 0.0  
Snow Depth 0.00 in    
Sea Level Pressure  
Sea Level Pressure 29.75 in    
Wind  
Wind Speed 9 mph ()    
Max Wind Speed 23 mph    
Max Gust Speed 29 mph    
Visibility 6.7 miles    
Events Rain , Thunderstorm    
T = Trace of Precipitation, MM = Missing Value Source: Averaged Metar Reports

Daily Weather History Graph

Daily Weather History Graph

Search for Another Location

Airport or City:

Astronomy

Sep. 27, 2019 Rise Set
Actual Time 6:44 AM CDT 6:40 PM CDT
Civil Twilight 6:15 AM CDT 7:08 PM CDT
Nautical Twilight 5:42 AM CDT 7:41 PM CDT
Astronomical Twilight 5:09 AM CDT 8:14 PM CDT
Moon 5:00 AM CDT (9/27) 6:33 PM CDT (9/27)
Length of Visible Light 12h 52m
Length of Day
11h 56m
Waning Crescent, 2% of the Moon is Illuminated
Sep 27
Waning Crescent
Sep 28
New
Oct 5
First Quarter
Oct 13
Full
Oct 21
Last Quarter

Hourly Weather History & Observations

Time (CDT) Temp. Dew Point Humidity Pressure Visibility Wind Dir Wind Speed Gust Speed Precip Events Conditions
12:52 AM 62.1 °F 46.9 °F 58% 29.87 in 10.0 mi SSW 11.5 mph - N/A   Overcast
1:52 AM 62.1 °F 48.0 °F 60% 29.85 in 10.0 mi South 6.9 mph - N/A   Overcast
2:52 AM 63.0 °F 45.0 °F 52% 29.82 in 10.0 mi South 12.7 mph - N/A   Mostly Cloudy
3:52 AM 63.0 °F 45.0 °F 52% 29.82 in 10.0 mi South 5.8 mph - N/A   Overcast
4:52 AM 62.1 °F 45.0 °F 53% 29.81 in 10.0 mi SSE 6.9 mph - N/A   Overcast
5:52 AM 62.1 °F 45.0 °F 53% 29.81 in 10.0 mi SSE 6.9 mph - N/A   Overcast
6:52 AM 61.0 °F 46.0 °F 58% 29.78 in 10.0 mi SSE 10.4 mph - N/A   Mostly Cloudy
7:52 AM 62.1 °F 46.0 °F 56% 29.77 in 10.0 mi South 9.2 mph - N/A   Overcast
8:52 AM 63.0 °F 46.9 °F 56% 29.74 in 10.0 mi South 12.7 mph - N/A   Overcast
10:12 AM 66.0 °F 48.0 °F 52% 29.75 in 10.0 mi SSW 12.7 mph - N/A   Overcast
10:52 AM 66.0 °F 48.0 °F 52% 29.68 in 10.0 mi South 20.7 mph 28.8 mph N/A   Overcast
11:52 AM 66.0 °F 54.0 °F 65% 29.71 in 10.0 mi West 16.1 mph 24.2 mph 0.00 in   Overcast
12:52 PM 64.9 °F 55.9 °F 73% 29.71 in 10.0 mi SSW 13.8 mph 24.2 mph N/A   Overcast
1:52 PM 66.0 °F 59.0 °F 78% 29.68 in 10.0 mi South 10.4 mph - N/A   Overcast
2:15 PM 64.9 °F 57.9 °F 78% 29.70 in 10.0 mi SSW 13.8 mph 23.0 mph N/A   Overcast
2:52 PM 64.9 °F 59.0 °F 81% 29.68 in 10.0 mi SW 10.4 mph - 0.00 in   Overcast
3:52 PM 64.9 °F 60.1 °F 84% 29.69 in 4.0 mi SSW 11.5 mph - N/A   Haze
4:52 PM 64.0 °F 61.0 °F 90% 29.69 in 2.5 mi SW 9.2 mph - 0.00 in Rain Light Rain
5:19 PM 64.9 °F 62.1 °F 90% 29.68 in 4.0 mi SW 5.8 mph - 0.00 in   Overcast
5:52 PM 66.0 °F 62.1 °F 87% 29.68 in 6.0 mi West 5.8 mph - 0.00 in   Overcast
6:45 PM 66.9 °F 63.0 °F 87% 29.73 in 6.0 mi West 4.6 mph - N/A   Overcast
6:52 PM 66.9 °F 63.0 °F 87% 29.71 in 6.0 mi WSW 3.5 mph - N/A   Overcast
7:52 PM 66.9 °F 63.0 °F 87% 29.74 in 5.0 mi NW 9.2 mph - 0.00 in Rain Light Rain
8:06 PM 66.0 °F 63.0 °F 90% 29.75 in 2.0 mi NW 8.1 mph - 0.06 in   Overcast
8:26 PM 66.0 °F 63.0 °F 90% 29.70 in 2.0 mi ESE 9.2 mph - 0.19 in Rain , Thunderstorm Light Thunderstorms and Rain
8:52 PM 64.9 °F 63.0 °F 93% 29.75 in 2.0 mi NW 8.1 mph - 0.27 in Rain , Thunderstorm Light Thunderstorms and Rain
9:16 PM 63.0 °F 61.0 °F 93% 29.72 in 2.0 mi North 4.6 mph - 0.01 in Rain Light Rain
9:52 PM 64.9 °F 62.1 °F 90% 29.77 in 2.0 mi NNW 6.9 mph - 0.02 in Rain Light Rain
10:05 PM 64.9 °F 62.1 °F 90% 29.79 in 2.0 mi NNW 5.8 mph - 0.00 in   Light Drizzle
10:52 PM 63.0 °F 60.1 °F 90% 29.80 in 2.0 mi NNE 11.5 mph - 0.01 in   Overcast
11:50 PM 60.8 °F 57.2 °F 88% 29.82 in 3.0 mi NNE 6.9 mph - 0.00 in Rain Light Rain
11:52 PM 61.0 °F 57.9 °F 90% 29.82 in 3.0 mi NNE 6.9 mph - 0.00 in   Overcast